Tracking 19644 objects as of 25-Apr-2019
HD Live streaming from Space Station
objects crossing your sky now

CBERS 1 DEB

Track CBERS 1 DEB now!
10-day predictions


NORAD ID: 32072
Int'l Code: 1999-057QL
Perigee: 686.7 km
Apogee: 697.6 km
Inclination: 98.4 °
Period: 98.5 minutes
Semi major axis: 7063 km
RCS: 0.0043 m2 (small)
Launch date: October 14, 1999
Source: China/Brazil (CHBZ)
Launch site: Taiyaun Space Center, China (TSC)

Note: This is SATELLITE DEBRIS
aabbcc
Your satellite tracking list
Your tracking list is empty




NASA's NSSDC Master Catalog

Two Line Element Set (TLE):
1 32072U 99057QL  19112.75847317  .00001321  00000-0  27013-3 0  9993
2 32072  98.3912 103.6451 0007675 191.6316 168.4709 14.62526969623848
Source of the keplerian elements: AFSPC